DLH591 HKJK-EDDF

Flight info

Callsign DLH591
Flight time N/A
Altitude 36000
Route ETORU1A LOTAS UM308 RUDOL/N0496F370 UM308 GETOL M308 RANSO/N0489F390 M308 KONET UG650 RASKA/N0490F380 T513 EGMEG/N0487F390 G660 JDW/N0492F380 L677 RIDEP/N0487F400 L677 CVO L617 MENKU Y661 ANTAR DCT AKINA DCT RIGRO DCT FSK UL608 DISOR DCT LONTA UL608 DOLEV DCT BEDOX DCT SIMBA DCT AKINI T161 DEBHI SPESA5B
Aircraft A359/H-SDE2E3GHIJ3J4J5LM1ORWXY/LB1D1

Departure

Time N/A
Airport Jomo Kenyatta International Airport (HKJK)

Arrival

Time 2026-05-07 19:03
Airport Frankfurt Main Airport (EDDF)
Time Latitude Longitude Altitude Speed Heading
2026-05-07 17:58 46.08172 16.08769 39981 ft 473 kts 310°
2026-05-07 17:59 46.12872 16.02132 39978 ft 474 kts 310°
2026-05-07 17:59 46.17587 15.95457 39971 ft 475 kts 310°
2026-05-07 18:00 46.22297 15.88774 39971 ft 475 kts 310°
2026-05-07 18:00 46.27003 15.82080 39963 ft 475 kts 310°
2026-05-07 18:01 46.31793 15.75478 39958 ft 477 kts 312°
2026-05-07 18:01 46.36660 15.68920 39952 ft 477 kts 312°
2026-05-07 18:02 46.43897 15.59098 39939 ft 477 kts 311°
2026-05-07 18:03 46.48725 15.52489 39940 ft 477 kts 311°
2026-05-07 18:03 46.53546 15.45866 39948 ft 478 kts 311°
2026-05-07 18:04 46.58377 15.39211 39944 ft 479 kts 311°
2026-05-07 18:04 46.63219 15.32526 39949 ft 479 kts 311°
2026-05-07 18:05 46.68046 15.25847 39961 ft 479 kts 311°
2026-05-07 18:05 46.72877 15.19144 39970 ft 479 kts 311°
2026-05-07 18:06 46.77665 15.12482 39978 ft 478 kts 311°
2026-05-07 18:06 46.82479 15.05767 39983 ft 479 kts 311°
2026-05-07 18:07 46.87302 14.99022 39975 ft 480 kts 311°
2026-05-07 18:07 46.92122 14.92264 39985 ft 480 kts 311°
2026-05-07 18:08 46.96933 14.85500 39992 ft 479 kts 311°
2026-05-07 18:08 47.01737 14.78730 40004 ft 479 kts 311°
2026-05-07 18:09 47.06502 14.71997 40028 ft 479 kts 311°
2026-05-07 18:09 47.11303 14.65193 40047 ft 480 kts 311°
2026-05-07 18:10 47.16104 14.58374 40047 ft 480 kts 311°
2026-05-07 18:10 47.20897 14.51549 40046 ft 479 kts 311°
2026-05-07 18:11 47.25676 14.44724 40049 ft 479 kts 311°
2026-05-07 18:11 47.30449 14.37889 40056 ft 478 kts 311°
2026-05-07 18:12 47.35180 14.31094 40065 ft 478 kts 311°
2026-05-07 18:12 47.39942 14.24237 40062 ft 479 kts 311°
2026-05-07 18:13 47.44718 14.17342 40072 ft 480 kts 311°
2026-05-07 18:13 47.49495 14.10430 40059 ft 480 kts 311°
2026-05-07 18:14 47.54259 14.03516 40061 ft 480 kts 311°
2026-05-07 18:14 47.59024 13.96582 40065 ft 480 kts 311°
2026-05-07 18:15 47.63767 13.89661 40059 ft 481 kts 311°
2026-05-07 18:15 47.68538 13.82681 40047 ft 482 kts 311°
2026-05-07 18:16 47.73305 13.75690 40046 ft 481 kts 311°
2026-05-07 18:16 47.78066 13.68688 40044 ft 481 kts 311°
2026-05-07 18:17 47.82825 13.61667 40062 ft 481 kts 311°
2026-05-07 18:17 47.87545 13.54684 40039 ft 482 kts 311°
2026-05-07 18:18 47.92304 13.47625 40043 ft 483 kts 311°
2026-05-07 18:18 47.97069 13.40539 40041 ft 483 kts 311°
2026-05-07 18:19 48.01819 13.33457 40039 ft 483 kts 311°
2026-05-07 18:19 48.06569 13.26353 40046 ft 483 kts 311°
2026-05-07 18:20 48.11308 13.19247 40045 ft 482 kts 311°
2026-05-07 18:20 48.16014 13.12171 40043 ft 482 kts 311°
2026-05-07 18:21 48.20739 13.05046 40041 ft 482 kts 311°
2026-05-07 18:21 48.25427 12.97849 40041 ft 481 kts 309°
2026-05-07 18:22 48.29683 12.90144 40049 ft 478 kts 303°
2026-05-07 18:22 48.33413 12.81884 40044 ft 477 kts 300°
2026-05-07 18:23 48.36963 12.73536 40045 ft 476 kts 300°
2026-05-07 18:23 48.40517 12.65115 40049 ft 477 kts 300°
2026-05-07 18:24 48.44088 12.56684 40050 ft 477 kts 300°
2026-05-07 18:24 48.47661 12.48252 40051 ft 477 kts 300°
2026-05-07 18:25 48.51232 12.39807 40050 ft 477 kts 300°
2026-05-07 18:25 48.54796 12.31349 40051 ft 477 kts 300°
2026-05-07 18:26 48.58356 12.22871 40050 ft 477 kts 300°
2026-05-07 18:26 48.61900 12.14406 40054 ft 476 kts 300°
2026-05-07 18:27 48.65416 12.05981 40056 ft 476 kts 300°
2026-05-07 18:27 48.68640 11.98233 40059 ft 476 kts 300°
2026-05-07 18:28 48.71106 11.92288 40052 ft 477 kts 300°
2026-05-07 18:28 48.74616 11.83809 40058 ft 477 kts 300°
2026-05-07 18:29 48.78133 11.75284 40049 ft 477 kts 300°
2026-05-07 18:29 48.81643 11.66750 40051 ft 476 kts 300°
2026-05-07 18:30 48.85217 11.58273 40050 ft 477 kts 302°
2026-05-07 18:30 48.88836 11.50414 39796 ft 476 kts 302°
2026-05-07 18:30 48.90745 11.46291 39571 ft 477 kts 302°
2026-05-07 18:31 48.92656 11.42161 39358 ft 477 kts 303°
2026-05-07 18:31 48.94537 11.38090 39128 ft 476 kts 303°
2026-05-07 18:31 48.96439 11.33970 38908 ft 476 kts 303°
2026-05-07 18:31 48.98349 11.29825 38625 ft 474 kts 303°
2026-05-07 18:32 49.00233 11.25734 38028 ft 471 kts 303°
2026-05-07 18:32 49.02106 11.21658 37393 ft 469 kts 303°
2026-05-07 18:32 49.03975 11.17585 36735 ft 468 kts 303°
2026-05-07 18:32 49.05835 11.13525 36109 ft 467 kts 303°
2026-05-07 18:33 49.07692 11.09465 35440 ft 466 kts 303°
2026-05-07 18:33 49.09548 11.05400 34721 ft 467 kts 303°
2026-05-07 18:33 49.11384 11.01372 33929 ft 469 kts 303°
2026-05-07 18:33 49.13251 10.97273 33078 ft 469 kts 303°
2026-05-07 18:34 49.15108 10.93189 32264 ft 469 kts 303°
2026-05-07 18:34 49.16972 10.89085 31417 ft 469 kts 303°
2026-05-07 18:34 49.18828 10.84991 30605 ft 469 kts 303°
2026-05-07 18:34 49.20685 10.80888 29635 ft 470 kts 303°
2026-05-07 18:35 49.22543 10.76778 28710 ft 468 kts 303°
2026-05-07 18:35 49.24379 10.72710 28104 ft 461 kts 303°
2026-05-07 18:35 49.26187 10.68698 27477 ft 455 kts 303°
2026-05-07 18:35 49.27965 10.64744 26865 ft 449 kts 303°
2026-05-07 18:36 49.29729 10.60818 26251 ft 445 kts 303°
2026-05-07 18:36 49.31455 10.56971 25644 ft 440 kts 303°
2026-05-07 18:36 49.33182 10.53115 25033 ft 436 kts 303°
2026-05-07 18:36 49.34891 10.49294 24433 ft 434 kts 303°
2026-05-07 18:37 49.36597 10.45477 23882 ft 430 kts 303°
2026-05-07 18:37 49.38321 10.41696 23586 ft 436 kts 304°
2026-05-07 18:37 49.40077 10.37864 23289 ft 438 kts 304°
2026-05-07 18:37 49.41802 10.34089 22999 ft 436 kts 304°
2026-05-07 18:38 49.43539 10.30280 22735 ft 434 kts 304°
2026-05-07 18:38 49.45267 10.26486 22452 ft 431 kts 304°
2026-05-07 18:38 49.46983 10.22709 22178 ft 429 kts 304°
2026-05-07 18:38 49.48687 10.18956 21911 ft 428 kts 303°
2026-05-07 18:39 49.50385 10.15208 21646 ft 426 kts 303°
2026-05-07 18:39 49.52076 10.11471 21386 ft 424 kts 303°
2026-05-07 18:39 49.53758 10.07747 21126 ft 423 kts 304°
2026-05-07 18:39 49.55440 10.04019 20872 ft 423 kts 304°
2026-05-07 18:40 49.57114 10.00304 20615 ft 421 kts 304°
2026-05-07 18:40 49.58779 9.96604 20368 ft 420 kts 304°
2026-05-07 18:40 49.60439 9.92911 20117 ft 418 kts 304°
2026-05-07 18:40 49.62071 9.89274 19879 ft 417 kts 304°
2026-05-07 18:41 49.63718 9.85598 19623 ft 416 kts 304°
2026-05-07 18:41 49.65357 9.81934 19374 ft 414 kts 304°
2026-05-07 18:41 49.66993 9.78272 19139 ft 413 kts 303°
2026-05-07 18:41 49.68621 9.74625 18891 ft 411 kts 303°
2026-05-07 18:42 49.70241 9.70992 18648 ft 410 kts 303°
2026-05-07 18:42 49.71849 9.67377 18404 ft 408 kts 303°
2026-05-07 18:42 49.73454 9.63767 18172 ft 407 kts 303°
2026-05-07 18:42 49.75051 9.60168 17894 ft 405 kts 303°
2026-05-07 18:43 49.76642 9.56578 17612 ft 404 kts 303°
2026-05-07 18:43 49.78223 9.53004 17221 ft 400 kts 303°
2026-05-07 18:43 49.79781 9.49481 16660 ft 394 kts 303°
2026-05-07 18:43 49.81321 9.45992 16027 ft 391 kts 303°
2026-05-07 18:44 49.82849 9.42526 15387 ft 388 kts 303°
2026-05-07 18:44 49.84366 9.39080 14763 ft 386 kts 303°
2026-05-07 18:44 49.85796 9.35635 14162 ft 383 kts 298°
2026-05-07 18:44 49.86804 9.31852 13713 ft 379 kts 288°
2026-05-07 18:45 49.87582 9.27911 13340 ft 383 kts 286°
2026-05-07 18:45 49.88331 9.23959 12960 ft 381 kts 286°
2026-05-07 18:45 49.89078 9.20015 12580 ft 379 kts 286°
2026-05-07 18:45 49.89821 9.16099 12196 ft 377 kts 286°
2026-05-07 18:46 49.90561 9.12199 11823 ft 376 kts 286°
2026-05-07 18:46 49.91286 9.08372 11454 ft 374 kts 286°
2026-05-07 18:46 49.92017 9.04509 11134 ft 373 kts 286°
2026-05-07 18:46 49.92751 9.00665 11063 ft 372 kts 286°
2026-05-07 18:47 49.93488 8.96809 11050 ft 372 kts 286°
2026-05-07 18:47 49.94209 8.93026 11048 ft 356 kts 286°
2026-05-07 18:47 49.94887 8.89461 11048 ft 334 kts 286°
2026-05-07 18:47 49.95525 8.86098 11047 ft 313 kts 286°
2026-05-07 18:48 49.96121 8.82957 11044 ft 294 kts 286°
2026-05-07 18:48 49.96687 8.79962 11038 ft 285 kts 286°
2026-05-07 18:48 49.97237 8.77047 10712 ft 281 kts 286°
2026-05-07 18:48 49.97775 8.74108 10147 ft 285 kts 284°
2026-05-07 18:49 49.97955 8.72085 9878 ft 284 kts 271°
2026-05-07 18:49 49.97426 8.68160 9636 ft 282 kts 251°
2026-05-07 18:49 49.96742 8.65297 9532 ft 282 kts 250°
2026-05-07 18:49 49.96046 8.62457 9409 ft 281 kts 250°
2026-05-07 18:50 49.95577 8.60535 9333 ft 281 kts 250°
2026-05-07 18:50 49.94894 8.57721 9229 ft 281 kts 250°
2026-05-07 18:50 49.94208 8.54891 9104 ft 280 kts 250°
2026-05-07 18:50 49.93523 8.52062 8986 ft 280 kts 250°
2026-05-07 18:51 49.92616 8.48315 8845 ft 279 kts 250°
2026-05-07 18:51 49.92158 8.46412 8778 ft 279 kts 250°
2026-05-07 18:51 49.91488 8.43632 8673 ft 278 kts 250°
2026-05-07 18:51 49.90810 8.40828 8559 ft 278 kts 250°
2026-05-07 18:52 49.90133 8.38025 8449 ft 277 kts 250°
2026-05-07 18:52 49.89456 8.35229 8331 ft 276 kts 250°
2026-05-07 18:52 49.88782 8.32446 8226 ft 275 kts 250°
2026-05-07 18:52 49.88110 8.29672 8073 ft 274 kts 250°
2026-05-07 18:53 49.87441 8.26905 7950 ft 274 kts 250°
2026-05-07 18:53 49.86769 8.24146 7848 ft 273 kts 250°
2026-05-07 18:53 49.86096 8.21391 7730 ft 273 kts 250°
2026-05-07 18:53 49.85429 8.18643 7618 ft 272 kts 250°
2026-05-07 18:54 49.84761 8.15900 7513 ft 272 kts 250°
2026-05-07 18:54 49.84089 8.13156 7395 ft 272 kts 250°
2026-05-07 18:54 49.83419 8.10418 7278 ft 271 kts 250°
2026-05-07 18:54 49.82817 8.07650 7193 ft 271 kts 258°
2026-05-07 18:55 49.82853 8.04768 7119 ft 269 kts 285°
2026-05-07 18:55 49.83706 8.02299 7005 ft 260 kts 312°
2026-05-07 18:55 49.85166 8.00768 6774 ft 253 kts 340°
2026-05-07 18:55 49.86885 8.00530 6519 ft 249 kts
2026-05-07 18:56 49.88426 8.01617 6393 ft 242 kts 36°
2026-05-07 18:56 49.89683 8.03337 6207 ft 241 kts 43°
2026-05-07 18:56 49.90829 8.05248 6032 ft 242 kts 51°
2026-05-07 18:56 49.91691 8.07449 5839 ft 236 kts 63°
2026-05-07 18:57 49.92308 8.09791 5659 ft 237 kts 68°
2026-05-07 18:57 49.92881 8.12209 5476 ft 240 kts 69°
2026-05-07 18:57 49.93457 8.14639 5319 ft 239 kts 68°
2026-05-07 18:57 49.94021 8.17009 5157 ft 229 kts 68°
2026-05-07 18:58 49.94560 8.19255 4998 ft 221 kts 68°
2026-05-07 18:58 49.95095 8.21452 4734 ft 213 kts 67°
2026-05-07 18:58 49.95598 8.23541 4447 ft 201 kts 68°
2026-05-07 18:58 49.96075 8.25536 4175 ft 194 kts 68°
2026-05-07 18:59 49.96542 8.27484 3878 ft 191 kts 68°
2026-05-07 18:59 49.96999 8.29391 3602 ft 186 kts 68°
2026-05-07 18:59 49.97439 8.31227 3351 ft 177 kts 68°
2026-05-07 18:59 49.97867 8.33015 3112 ft 176 kts 68°
2026-05-07 19:00 49.98293 8.34790 2876 ft 175 kts 68°
2026-05-07 19:00 49.98715 8.36553 2624 ft 174 kts 68°
2026-05-07 19:00 49.99134 8.38303 2396 ft 172 kts 68°
2026-05-07 19:00 49.99551 8.40047 2164 ft 172 kts 68°
2026-05-07 19:01 49.99959 8.41752 1928 ft 164 kts 68°
2026-05-07 19:01 50.00344 8.43362 1717 ft 154 kts 68°
2026-05-07 19:01 50.00704 8.44875 1499 ft 145 kts 68°
2026-05-07 19:01 50.01057 8.46312 1288 ft 139 kts 68°
2026-05-07 19:02 50.01397 8.47671 1107 ft 133 kts 69°
2026-05-07 19:02 50.01709 8.49014 961 ft 134 kts 70°
2026-05-07 19:02 50.02034 8.50368 799 ft 134 kts 69°
2026-05-07 19:02 50.02361 8.51710 624 ft 133 kts 69°
2026-05-07 19:03 50.02672 8.53057 424 ft 131 kts 70°
2026-05-07 19:03 50.02980 8.54381 349 ft 126 kts 65°
2026-05-07 19:03 50.03217 8.55354 355 ft 49 kts 70°
2026-05-07 19:03 50.03320 8.55783 360 ft 40 kts 70°
2026-05-07 19:04 50.03398 8.56101 365 ft 24 kts 64°
2026-05-07 19:04 50.03490 8.56302 366 ft 23 kts 45°
2026-05-07 19:04 50.03589 8.56437 363 ft 12 kts 40°
2026-05-07 19:04 50.03647 8.56513 365 ft 1 kts 40°
2026-05-07 19:06 50.03731 8.56623 365 ft 14 kts 40°
2026-05-07 19:06 50.03794 8.56743 366 ft 15 kts 61°
2026-05-07 19:07 50.03834 8.56904 366 ft 17 kts 70°
2026-05-07 19:07 50.03877 8.57086 366 ft 21 kts 69°
2026-05-07 19:07 50.03934 8.57324 375 ft 26 kts 69°
2026-05-07 19:07 50.04004 8.57619 377 ft 32 kts 70°
2026-05-07 19:08 50.04087 8.57962 375 ft 34 kts 70°
2026-05-07 19:08 50.04168 8.58301 378 ft 30 kts 70°
2026-05-07 19:08 50.04206 8.58462 376 ft 8 kts 70°
2026-05-07 19:08 50.04232 8.58561 378 ft 11 kts 63°
2026-05-07 19:09 50.04300 8.58618 375 ft 13 kts
2026-05-07 19:09 50.04353 8.58627 376 ft 6 kts
2026-05-07 19:09 50.04401 8.58635 377 ft 8 kts
2026-05-07 19:09 50.04466 8.58643 377 ft 11 kts 359°
2026-05-07 19:10 50.04548 8.58614 377 ft 11 kts 340°
2026-05-07 19:10 50.04581 8.58595 376 ft 6 kts 339°
2026-05-07 19:10 50.04589 8.58591 376 ft 0 kts 339°
2026-05-07 19:11 50.04591 8.58589 376 ft 2 kts 339°
2026-05-07 19:11 50.04632 8.58564 375 ft 8 kts 332°
2026-05-07 19:11 50.04653 8.58500 375 ft 6 kts 266°
2026-05-07 19:12 50.04638 8.58413 376 ft 11 kts 252°
2026-05-07 19:12 50.04604 8.58276 375 ft 16 kts 249°
2026-05-07 19:12 50.04558 8.58085 373 ft 20 kts 250°
2026-05-07 19:12 50.04514 8.57897 375 ft 18 kts 249°
2026-05-07 19:13 50.04478 8.57752 377 ft 10 kts 249°
2026-05-07 19:13 50.04466 8.57650 374 ft 9 kts 276°
2026-05-07 19:13 50.04502 8.57565 373 ft 10 kts 322°
2026-05-07 19:13 50.04569 8.57511 369 ft 11 kts 338°
2026-05-07 19:14 50.04630 8.57461 367 ft 6 kts 322°
2026-05-07 19:14 50.04660 8.57421 369 ft 5 kts 320°
2026-05-07 19:14 50.04689 8.57407 370 ft 4 kts 354°
2026-05-07 19:14 50.04715 8.57416 364 ft 4 kts 21°
2026-05-07 19:15 50.04733 8.57435 369 ft 3 kts 36°
2026-05-07 19:15 50.04742 8.57446 369 ft 0 kts 40°
2026-05-07 19:15 50.04742 8.57447 369 ft 0 kts 40°
2026-05-07 19:15 50.04744 8.57450 370 ft 0 kts 41°
2026-05-07 19:16 50.04747 8.57454 370 ft 2 kts 41°
2026-05-07 19:16 50.04749 8.57456 370 ft 0 kts 41°
2026-05-07 19:16 50.04750 8.57458 370 ft 0 kts 42°